Theta_e
331 330 330 330 330 330 329 330 330 330 330 329 329 328 327 328 329 330 328 326 327 327 327 327 327 327 326 327 327 326 327 327 327 327 327 327 327 325 319 320 321 324 327 329 330 331 331 331 332 332 332 332 332 332 332 332 333 334 332 330 332 330 331 329 330 330 330 329 329 329 329 329 328 327 327 326 326 325 326 325 325 326 326 325 325
331 330 329 330 329 330 329 329 329 330 329 329 329 328 326 326 327 327 326 327 327 328 327 328 327 327 326 326 326 326 326 326 327 327 327 327 328 328 318 318 320 323 325 327 330 330 330 330 330 331 332 333 332 332 331 333 331 333 334 333 330 332 331 330 329 329 330 330 330 330 329 328 329 328 328 327 326 327 326 326 326 326 326 326 325
331 331 331 331 330 330 329 329 329 330 330 330 330 329 328 327 327 327 328 328 328 328 327 328 328 328 327 326 326 326 326 327 326 327 326 327 328 328 329 319 319 321 323 325 327 328 329 329 330 331 331 332 332 332 332 332 331 331 331 331 331 330 330 330 330 329 329 330 329 328 329 328 329 328 328 328 327 327 326 326 326 326 327 326 326
332 332 331 331 332 331 330 329 330 331 331 330 330 330 330 330 330 330 330 329 328 328 329 327 328 328 328 327 327 327 326 327 326 327 327 328 328 328 328 327 320 319 320 321 323 324 325 326 327 329 330 331 332 332 331 331 331 330 331 331 331 331 331 330 330 329 329 329 329 328 327 327 328 328 328 328 328 327 327 328 327 327 327 326 327
331 332 331 332 331 331 330 331 331 332 331 331 332 331 330 330 330 330 329 329 328 329 330 328 327 327 328 327 327 327 328 327 327 327 327 328 328 327 328 327 327 320 318 318 320 320 322 323 324 325 327 328 329 330 329 329 329 329 330 330 330 331 331 330 328 328 329 329 329 328 327 327 327 327 327 327 327 327 327 328 328 328 327 327 327
332 332 332 331 332 331 332 331 332 333 332 331 330 330 330 330 330 328 325 327 327 328 327 326 326 327 327 327 327 327 327 327 326 327 327 327 327 327 326 326 325 326 326 319 318 318 319 320 322 323 323 324 325 326 328 328 329 329 329 329 330 330 330 329 329 328 328 328 327 326 326 326 326 326 326 326 326 327 327 327 327 328 328 327 325
332 332 332 332 331 331 331 332 333 333 331 330 330 330 330 329 328 327 326 326 326 326 326 326 326 326 326 327 326 327 327 327 327 328 327 327 326 326 326 325 324 324 324 323 316 315 316 317 319 320 320 321 322 323 325 327 327 327 327 328 328 328 328 327 327 327 326 326 325 324 323 324 324 325 325 325 325 326 327 327 327 327 327 328 328
332 332 332 332 331 331 331 333 333 331 330 330 329 328 328 329 329 328 324 324 325 325 325 324 325 325 327 327 327 326 326 327 327 327 327 326 326 326 325 324 324 322 318 322 322 318 313 314 316 317 317 318 320 322 323 325 325 326 326 326 326 325 325 325 324 324 323 323 323 323 323 323 323 324 324 324 325 326 326 326 326 326 326 326 326
332 332 331 332 331 331 332 334 333 331 329 329 328 328 328 328 328 328 328 324 324 324 324 324 324 325 326 326 327 327 326 326 327 326 326 325 325 324 324 323 322 315 322 320 321 320 314 312 314 314 313 314 317 319 321 322 322 324 325 325 324 324 323 322 322 322 321 321 321 321 322 323 323 323 324 324 324 325 325 325 325 325 325 325 326
333 332 331 332 332 332 332 332 331 330 328 328 328 329 329 328 327 328 327 326 324 323 323 324 325 326 325 326 326 326 326 326 327 321 324 324 324 323 322 322 322 321 320 320 320 319 319 316 312 313 310 312 314 316 318 319 320 322 323 324 323 323 321 320 320 320 319 319 319 319 320 320 320 320 320 321 321 322 322 322 322 322 322 322 323
333 332 331 331 331 332 332 332 331 330 329 328 328 329 329 328 327 327 328 327 325 325 325 325 325 325 324 325 325 326 326 326 325 324 323 323 322 320 323 322 321 320 320 319 318 318 318 318 318 318 317 310 312 313 315 316 317 320 322 322 322 321 320 319 319 318 318 318 318 318 318 319 319 319 319 319 319 320 322 321 321 321 321 321 322
332 332 331 331 331 331 331 332 331 330 329 328 327 327 327 326 327 327 326 326 325 325 326 325 324 324 323 324 325 325 325 325 324 323 322 322 322 322 321 321 320 320 319 319 318 318 317 317 314 316 316 314 311 311 312 313 314 317 318 318 319 320 320 318 318 318 317 317 317 317 317 317 318 318 318 319 319 319 319 319 319 320 320 320 321
332 332 330 328 330 330 331 331 331 329 328 328 329 328 328 328 327 327 326 325 325 326 326 325 322 321 323 323 324 326 325 322 321 322 322 321 321 321 320 320 320 319 319 319 318 317 317 316 316 315 315 315 314 311 312 312 311 315 315 314 316 318 320 318 318 317 315 316 316 316 317 316 317 317 318 318 318 318 318 319 319 319 318 318 318
330 331 331 331 330 330 331 331 330 329 329 329 329 326 330 328 328 325 327 324 324 326 325 323 320 318 317 317 319 321 321 320 320 321 321 321 321 320 320 320 319 318 318 318 317 316 316 315 314 314 314 314 314 313 312 311 310 311 312 311 315 318 318 317 316 315 316 317 317 316 316 316 316 316 317 318 318 317 317 317 318 318 318 318 318
331 331 331 331 331 332 332 331 330 330 328 328 329 328 328 327 328 324 324 325 324 326 324 323 319 319 317 314 315 315 318 319 319 321 321 320 320 320 319 319 317 318 318 316 315 315 315 313 313 313 313 313 312 312 311 308 308 308 309 308 311 314 315 316 316 316 316 315 314 315 315 315 315 316 317 316 316 316 316 316 316 316 317 317 317
332 331 331 331 332 331 332 331 331 331 330 328 328 327 328 328 328 326 325 322 322 322 323 323 321 318 313 314 315 314 311 315 316 320 319 320 320 318 319 318 318 317 317 315 314 314 313 313 312 312 312 312 312 311 310 310 307 305 304 305 307 311 313 315 315 314 314 314 313 314 314 314 314 316 315 314 314 315 315 315 315 315 316 317 317
332 332 330 331 332 332 332 332 332 331 330 328 327 328 329 329 328 327 325 323 322 323 322 322 321 322 319 313 314 312 312 314 315 316 318 318 318 318 318 316 316 316 315 314 314 313 311 311 312 311 312 311 311 310 310 306 303 302 302 302 305 307 309 311 312 312 313 313 313 313 313 313 313 313 313 313 313 313 313 313 313 314 316 316 316
333 334 332 330 331 332 332 332 332 331 330 328 328 328 328 328 328 327 325 325 323 322 320 316 317 317 317 319 318 314 313 313 312 309 318 319 318 317 317 317 316 315 314 313 312 311 310 310 311 310 310 310 310 310 306 303 302 303 300 302 305 305 306 308 310 312 312 312 312 311 312 312 311 311 311 311 311 312 313 313 314 314 314 314 314
331 332 332 331 332 332 331 330 330 330 330 329 327 327 328 328 329 327 326 325 323 319 319 320 314 314 314 315 316 316 317 313 310 311 308 314 317 316 316 316 316 314 313 312 311 310 309 309 309 310 309 310 309 306 303 303 302 302 300 302 304 305 305 305 306 309 310 310 310 310 311 311 311 311 311 311 312 312 312 313 313 314 314 314 313
331 330 331 331 330 331 332 331 330 331 330 330 328 327 327 328 328 327 326 324 321 319 320 319 315 316 314 314 315 315 314 315 315 312 309 307 309 315 316 315 314 313 312 310 309 308 308 308 309 309 309 309 306 303 302 301 300 299 298 300 302 303 304 305 305 305 306 307 308 308 309 310 311 311 311 311 311 311 312 312 313 313 313 313 312
331 331 330 330 328 329 331 331 331 330 329 330 329 329 328 327 324 323 322 321 321 321 321 319 318 317 313 314 315 313 312 313 313 313 309 306 307 309 309 312 312 312 310 310 308 308 308 308 308 309 309 307 304 302 300 298 298 297 296 298 300 302 304 304 305 305 305 305 306 307 309 309 310 310 310 310 310 311 312 312 312 312 311 310 310
329 330 330 330 330 329 329 330 331 331 329 330 329 327 326 326 324 322 321 320 321 320 321 321 319 320 318 317 314 311 310 309 309 309 309 310 306 307 307 306 304 307 309 307 306 307 308 307 308 309 308 305 302 299 298 298 297 296 294 295 297 300 301 302 304 304 304 304 304 304 306 307 308 308 309 309 309 309 311 311 309 309 310 309 309
328 327 328 329 330 329 328 328 329 327 326 327 327 325 324 323 323 323 322 322 320 320 320 320 319 318 318 317 315 314 313 311 308 308 308 306 305 304 305 306 305 304 307 306 306 306 307 308 307 308 307 302 300 299 297 296 295 294 293 294 295 297 298 300 302 303 303 303 303 303 304 304 305 306 307 308 309 309 309 308 308 308 308 308 309
326 326 325 327 327 327 327 327 326 326 325 326 326 326 324 324 323 323 322 322 322 320 319 318 318 318 318 317 317 317 317 315 314 312 310 308 307 305 304 305 304 305 307 305 307 305 305 305 307 307 304 301 299 298 296 296 296 292 292 293 294 295 297 299 301 301 302 302 302 302 303 303 303 303 304 306 308 308 307 307 308 307 307 308 307
324 324 324 325 325 325 325 325 324 324 325 325 324 323 323 322 322 322 321 320 319 319 318 318 317 316 316 316 316 316 315 316 315 312 310 309 307 303 304 304 299 301 303 303 302 303 305 303 305 306 303 300 300 297 295 295 295 293 291 293 294 294 294 296 299 300 301 301 301 301 301 301 302 302 303 304 305 306 306 305 306 306 306 306 305
323 323 325 324 323 324 324 325 325 324 324 323 322 323 323 322 320 320 319 319 319 319 319 317 317 317 316 314 314 313 313 313 312 311 309 307 304 303 302 301 300 298 301 301 303 299 304 304 305 304 302 300 298 296 295 294 295 292 290 292 294 293 293 295 297 298 299 300 299 299 299 300 301 301 301 303 303 303 303 304 304 305 304 304 305
325 325 325 323 322 323 323 323 323 323 323 321 320 321 321 321 320 319 319 319 318 317 315 315 313 313 314 313 311 310 309 309 310 309 309 307 305 303 301 296 297 299 297 300 299 298 297 302 304 302 300 299 297 295 294 294 293 291 290 294 294 293 292 294 296 297 298 298 298 298 298 298 299 300 300 300 301 301 302 302 303 304 304 304 303
325 324 323 322 321 321 321 321 321 321 320 319 318 318 318 318 317 317 316 316 317 316 314 313 313 313 312 311 310 307 307 307 307 306 306 305 304 303 302 298 293 291 296 293 297 296 300 298 302 302 300 297 296 294 292 293 294 291 290 293 293 293 292 292 294 296 296 296 296 296 297 297 298 299 299 298 298 298 299 299 300 300 299 299 300
324 322 321 320 320 320 319 319 319 320 319 318 317 317 317 315 315 314 313 313 314 313 313 312 310 310 309 308 308 304 303 303 303 303 303 302 302 301 300 298 298 291 290 290 293 292 297 298 294 300 298 296 294 294 293 293 292 290 292 292 292 292 291 291 293 295 295 295 295 295 296 297 297 297 297 298 298 298 298 298 298 298 299 299 300
321 319 319 319 318 315 319 317 317 317 316 316 316 316 315 314 313 313 312 311 310 310 310 309 308 307 305 305 305 301 301 302 301 300 299 299 299 299 299 299 298 293 291 289 289 293 293 297 297 295 295 294 293 293 293 292 291 290 291 292 291 291 290 290 292 293 293 293 293 294 295 296 296 297 297 297 297 297 297 297 298 298 299 300 300
319 317 317 316 316 316 318 316 315 314 314 314 313 313 313 312 312 311 310 310 308 306 306 307 305 304 302 302 302 300 299 298 298 297 296 297 297 297 296 296 297 296 293 291 287 291 294 291 292 294 293 292 292 291 292 292 291 290 290 291 291 290 289 289 290 290 291 292 292 293 294 295 295 296 296 296 296 297 297 297 297 297 298 298 298
317 316 315 313 312 312 313 313 313 313 313 313 313 313 312 311 309 309 307 308 306 304 303 304 303 303 301 299 299 297 296 295 294 294 294 295 295 295 295 294 293 293 292 291 288 287 293 291 291 292 292 291 291 290 290 291 291 290 290 290 290 289 289 290 290 289 290 291 291 292 293 293 294 295 295 295 295 295 296 296 296 296 296 296 296
314 313 312 312 312 312 311 310 310 310 310 308 309 310 309 307 306 306 304 305 304 302 300 299 300 300 299 297 295 294 294 292 292 292 292 292 292 292 293 292 291 290 291 290 288 288 290 293 291 290 291 291 289 290 289 289 289 290 289 290 290 289 289 289 289 289 289 290 290 290 291 292 293 293 293 293 293 294 294 295 295 294 294 293 294
312 311 311 311 310 312 311 311 309 308 308 307 307 308 306 303 302 303 303 305 302 298 297 295 296 296 296 294 292 291 293 292 291 291 290 290 291 291 290 291 291 290 290 288 288 287 286 289 289 290 290 290 287 290 288 287 288 288 288 289 289 289 289 289 289 289 289 289 289 290 291 291 292 292 291 291 292 293 294 294 293 292 292 292 292
309 310 310 309 309 309 309 309 308 306 306 305 305 306 305 303 301 300 303 303 299 295 296 294 294 294 293 292 290 290 291 290 290 290 289 290 291 290 289 289 289 289 289 289 287 286 286 286 288 287 288 288 287 288 288 288 288 288 287 287 288 289 289 289 288 288 289 289 290 290 290 290 290 291 291 291 291 291 291 291 291 291 291 291 291
307 307 308 307 306 305 306 304 303 303 303 302 303 305 307 305 302 300 300 299 297 296 295 294 293 293 293 291 290 290 291 291 290 289 289 290 290 289 289 289 288 288 288 288 288 286 285 285 287 287 287 286 287 288 288 288 287 286 287 287 288 287 288 288 288 288 288 289 289 290 290 290 289 290 290 290 290 290 291 291 291 290 290 290 290
306 304 302 304 304 304 303 301 300 300 300 300 302 303 304 304 302 299 298 296 296 295 295 295 291 293 292 291 291 291 291 291 290 289 289 289 289 289 289 289 288 289 288 288 287 286 285 285 286 287 287 287 288 287 287 286 285 286 287 286 286 286 287 288 288 288 288 288 288 288 288 288 288 289 289 289 289 290 290 290 290 289 289 288 288
301 301 301 300 301 301 301 300 299 298 297 298 300 300 300 300 298 297 294 294 295 295 295 294 292 292 291 291 291 291 291 290 290 290 290 289 289 288 288 288 288 287 286 286 286 286 285 285 285 285 286 285 285 286 287 286 284 284 284 285 285 286 286 285 286 287 287 287 287 287 287 287 287 287 288 289 289 289 289 289 289 288 288 287 287
298 297 296 298 297 299 298 298 298 297 296 297 297 298 297 297 296 295 293 293 294 294 294 292 291 291 291 290 290 290 291 291 290 289 289 288 289 288 288 287 287 287 286 286 286 285 285 284 285 285 285 286 285 284 286 286 285 284 283 282 282 285 285 284 284 285 286 286 287 287 286 286 286 286 287 288 288 288 288 288 288 287 286 286 287
297 297 297 297 296 297 296 296 296 296 296 296 296 296 293 293 295 295 293 293 293 291 290 290 290 290 290 290 290 290 290 290 289 289 289 288 288 287 287 287 287 286 286 285 285 285 284 284 284 284 284 284 285 285 285 284 283 283 283 281 280 281 282 284 284 283 284 285 284 284 285 285 285 285 286 287 287 287 287 287 286 286 286 287 288
297 296 296 296 295 295 296 296 295 295 296 293 293 294 292 293 294 294 294 292 290 289 289 288 288 288 288 289 289 289 288 286 286 287 288 288 288 287 287 286 286 285 285 285 284 284 284 284 283 284 283 283 283 282 282 281 281 280 282 282 280 281 282 281 282 284 284 283 283 282 282 283 283 284 284 284 285 285 285 285 286 285 286 287 288
295 294 294 295 295 294 294 294 294 295 294 294 291 291 292 293 294 293 291 290 289 289 288 287 287 287 287 288 287 285 284 285 285 285 286 286 287 288 287 286 285 285 284 283 283 284 283 282 282 282 281 281 281 281 281 281 282 282 281 280 279 280 280 280 281 283 284 282 281 280 281 283 283 283 283 283 284 285 284 285 285 285 285 287 288
292 292 292 292 293 294 293 292 291 292 293 292 289 292 293 293 291 291 290 289 289 288 287 287 286 286 286 286 285 285 285 284 285 285 285 285 285 285 284 284 285 285 283 282 283 283 282 282 282 281 281 280 281 281 281 281 281 280 280 280 279 279 278 276 275 279 284 282 280 278 279 283 283 281 281 282 283 284 284 284 285 286 286 287 288
291 291 292 293 292 291 292 292 292 291 291 289 291 292 293 292 291 290 290 289 288 287 287 286 286 285 285 284 285 285 285 285 286 285 285 285 284 284 283 283 283 283 284 283 282 282 282 281 280 281 280 280 280 281 281 281 280 280 280 279 279 278 277 276 276 276 280 282 279 277 278 281 282 281 280 281 282 283 283 284 285 286 287 287 287
290 290 292 291 290 290 291 291 291 291 290 289 291 292 292 292 291 289 289 288 287 287 287 286 285 285 284 284 284 284 284 284 285 285 284 283 283 283 282 282 282 282 283 283 283 283 283 281 280 280 280 280 280 281 281 280 281 278 278 278 278 278 277 276 277 277 279 281 279 277 276 279 280 279 278 281 282 282 282 283 285 286 287 287 287
289 290 290 290 289 290 290 290 290 290 290 289 290 291 291 291 290 289 288 288 287 287 286 286 285 285 284 283 283 283 283 284 284 284 284 283 282 282 282 282 282 282 282 281 280 280 281 282 281 280 281 282 280 281 282 281 279 277 277 276 277 276 276 276 277 277 279 281 278 276 275 278 279 278 278 280 281 281 281 283 285 285 286 287 287
289 289 289 289 289 289 290 290 291 290 290 289 291 291 290 290 290 288 288 287 287 286 286 286 285 284 284 283 283 283 283 283 284 284 283 283 282 282 281 281 282 282 282 281 281 282 282 283 282 282 282 282 281 281 281 281 280 280 279 277 277 277 277 278 277 279 279 281 279 277 273 276 279 277 278 279 280 279 280 282 283 285 285 286 286
289 290 290 289 288 288 289 290 292 290 290 290 290 290 290 290 289 287 287 286 286 285 285 285 285 284 284 284 283 283 283 283 283 284 284 283 282 281 280 281 281 281 280 281 282 283 283 282 282 281 281 281 281 281 281 280 279 279 278 278 278 277 276 274 274 276 276 279 279 276 274 275 278 276 276 278 278 278 279 280 282 284 284 285 286
289 289 289 289 289 288 288 288 288 289 289 290 290 290 289 289 287 286 285 285 284 284 284 284 283 283 283 283 283 283 282 282 284 285 285 283 282 280 280 279 279 279 279 281 282 281 280 279 278 278 279 279 280 280 280 279 278 278 277 275 275 275 273 272 272 273 274 276 277 278 276 274 276 276 275 276 277 277 277 279 280 282 284 285 285
289 288 289 290 288 288 287 288 288 288 288 288 289 289 289 288 287 285 285 285 284 283 282 282 283 282 282 282 282 282 282 282 284 285 285 283 281 280 279 278 277 277 278 281 281 280 278 277 276 277 277 277 277 277 277 277 277 277 276 273 274 274 272 272 270 271 272 274 276 278 274 274 275 275 274 275 276 276 277 278 279 280 282 283 284
289 289 289 288 288 288 287 287 286 287 287 287 288 289 288 287 286 285 285 284 283 282 281 281 281 281 281 282 282 282 282 283 285 285 285 283 281 280 279 277 276 276 278 280 278 277 276 275 276 276 276 276 276 275 275 275 276 276 277 276 275 273 271 271 271 270 270 272 277 278 272 273 273 274 274 271 270 274 277 278 278 279 279 280 280
Wind_Speed
4 4 4 4 3 3 2 2 2 2 2 2 2 2 3 3 3 2 2 2 2 2 2 2 3 2 2 2 3 3 3 3 3 3 4 4 4 1 4 4 6 8 9 10 11 12 13 14 15 16 16 16 16 16 16 16 15 14 16 17 16 16 15 13 12 12 12 15 15 16 16 17 17 17 17 17 18 17 17 18 19 18 17 17 17
4 4 4 4 4 4 3 3 3 2 3 3 2 2 2 3 2 3 2 2 3 1 2 2 2 2 2 2 2 3 3 3 4 4 4 4 4 4 6 5 5 7 8 9 11 12 13 14 15 15 17 17 17 17 17 17 16 16 16 17 17 16 14 14 14 13 11 11 14 17 16 15 15 17 17 17 18 18 19 19 18 19 19 20 19
5 5 5 4 4 4 4 3 3 3 3 3 2 3 2 2 2 2 2 2 2 2 3 3 2 2 2 3 2 3 3 3 3 4 5 5 5 5 5 5 5 6 8 9 10 12 13 14 15 15 16 17 17 17 17 17 17 16 16 16 17 17 17 15 15 16 14 13 13 13 14 13 14 16 16 16 19 20 21 19 19 20 21 22 22
5 5 5 5 4 4 4 4 4 3 3 3 3 3 3 2 2 2 3 3 3 3 2 3 3 3 3 3 3 3 3 3 3 4 4 5 5 5 5 5 3 5 6 7 9 11 12 13 13 14 14 15 15 16 17 17 16 16 15 16 17 17 17 17 17 16 16 15 14 15 15 16 16 16 15 14 16 18 21 21 19 20 23 22 23
6 6 6 5 5 5 5 5 4 4 4 4 4 3 4 4 4 3 3 4 4 4 3 3 4 4 3 3 3 3 3 3 4 4 4 4 4 4 5 5 6 4 5 3 5 8 10 11 11 12 13 14 14 14 14 15 15 15 16 16 17 18 18 18 17 16 16 16 16 16 16 16 17 17 17 18 17 18 17 17 19 20 21 22 23
6 6 6 6 6 6 6 5 5 4 4 4 4 4 4 4 4 3 3 4 6 5 3 4 5 5 4 2 3 4 5 4 4 4 4 4 4 4 4 4 4 4 5 3 1 3 8 10 10 11 12 13 13 13 13 13 14 16 16 16 17 18 18 18 18 18 18 18 17 17 17 17 17 17 18 18 19 19 19 19 18 18 17 19 21
7 6 6 6 7 7 6 6 5 4 4 4 4 5 4 5 4 4 7 7 7 6 5 6 6 6 6 5 5 4 4 5 4 4 4 4 4 3 3 3 3 3 4 4 3 6 6 8 10 10 10 11 11 12 13 14 14 14 15 16 17 18 18 19 19 19 19 19 18 18 18 18 18 17 17 17 18 19 20 20 20 19 19 19 18
8 7 6 6 6 6 6 6 5 4 4 4 4 5 4 4 5 6 7 6 6 6 6 6 6 7 5 6 5 5 6 6 6 5 4 3 3 3 3 2 2 3 3 3 3 4 4 6 8 8 9 11 12 12 13 13 14 14 14 15 16 17 18 18 18 17 17 17 17 17 17 17 18 19 19 19 20 19 20 21 20 20 20 20 21
8 8 7 7 6 6 6 5 4 4 4 4 4 5 4 4 5 3 5 7 7 7 7 6 6 6 6 6 5 5 5 5 5 5 3 3 2 2 1 2 2 1 2 3 3 3 4 0 4 3 5 9 10 11 12 13 14 14 14 14 15 15 16 16 16 16 16 16 16 17 16 17 17 18 17 18 19 20 20 21 21 22 22 22 22
9 8 8 7 7 6 6 5 5 4 4 5 5 4 4 4 7 7 6 6 8 7 6 5 4 5 6 6 6 5 5 5 4 4 3 2 1 2 2 2 3 3 3 3 3 3 3 1 5 5 4 7 8 10 12 14 14 14 14 15 15 15 16 16 16 16 17 17 17 17 17 17 18 18 18 18 18 19 20 20 21 22 23 23 23
9 9 8 7 7 7 7 7 6 5 6 6 6 5 5 5 6 7 6 5 6 6 6 5 6 7 7 7 7 6 5 4 3 3 2 1 1 1 1 3 2 3 3 2 3 3 4 5 5 5 4 6 7 9 11 13 14 15 15 15 15 15 16 16 16 16 16 17 17 17 16 16 17 17 17 17 18 19 19 20 20 20 20 20 22
9 9 8 7 7 7 7 5 5 5 6 6 6 7 7 7 7 7 7 5 4 5 5 5 7 7 7 6 5 5 5 3 2 2 1 1 1 1 2 2 2 3 3 3 4 4 5 5 5 5 5 5 5 6 8 11 14 16 16 17 16 16 16 16 16 16 17 17 17 16 17 17 17 18 18 18 19 19 20 20 21 21 21 22 22
9 8 8 8 7 6 7 7 6 6 6 7 9 10 9 7 6 5 6 8 7 6 5 3 6 6 5 4 5 4 2 2 1 1 1 1 1 2 2 2 2 3 3 3 3 4 5 5 5 5 5 5 4 5 5 8 14 15 16 17 17 16 16 16 17 17 17 17 17 17 18 18 18 18 19 19 19 20 20 21 21 22 22 23 23
8 9 9 9 8 8 8 7 7 6 6 7 8 7 4 5 6 8 5 7 7 5 3 3 5 5 4 3 4 2 2 1 3 2 1 2 2 2 2 3 3 3 4 5 4 5 5 5 5 5 5 5 5 6 7 8 10 13 17 18 17 17 16 16 17 17 17 17 17 18 18 19 19 19 19 19 20 20 21 21 21 22 22 23 24
9 9 8 8 8 8 7 7 8 7 7 8 11 10 7 7 8 8 7 6 6 5 4 5 4 1 1 2 4 2 4 3 3 1 2 3 3 2 3 2 3 3 4 4 4 4 4 5 5 5 5 5 5 6 6 8 9 9 13 18 17 17 17 17 17 17 17 17 18 19 19 19 19 19 20 20 21 22 22 23 23 23 24 25 25
9 9 8 9 10 10 8 9 10 9 8 10 11 11 10 10 8 7 8 8 6 5 5 6 5 3 3 4 1 2 5 5 4 2 2 2 0 2 2 2 1 2 4 4 4 4 4 4 5 5 5 5 6 6 6 7 9 10 10 13 16 17 17 17 17 18 18 18 18 18 18 19 19 19 20 21 21 22 22 23 23 24 24 24 25
10 11 10 11 12 10 10 11 12 9 7 10 10 11 11 11 10 7 9 8 8 5 4 4 6 5 4 2 4 4 3 2 2 5 4 3 2 1 2 2 2 3 3 3 3 3 4 4 5 5 5 6 6 6 6 8 8 8 9 11 14 16 16 16 17 17 18 18 18 18 18 19 19 20 21 21 22 22 22 22 23 23 24 24 25
11 12 10 10 12 13 11 11 9 10 10 9 10 10 11 11 10 9 9 10 8 5 5 3 5 5 5 4 4 4 3 2 3 3 2 4 2 3 2 1 2 3 2 3 4 3 3 3 4 5 5 6 6 6 6 7 7 6 8 11 16 16 16 16 16 16 17 18 18 18 18 19 19 19 20 21 21 21 22 23 23 24 24 25 26
11 10 12 11 11 12 12 10 7 9 11 9 9 10 10 10 8 9 9 8 7 6 7 5 2 4 5 4 2 2 1 2 3 2 8 0 2 0 1 1 1 1 1 2 3 3 3 3 4 4 5 5 5 5 6 6 7 5 11 16 16 16 16 15 15 15 16 17 18 18 18 19 20 20 21 22 22 23 23 24 24 25 25 25 26
11 11 9 8 8 9 11 12 10 8 6 6 7 9 7 6 8 9 8 6 7 6 7 5 5 4 3 3 5 3 2 3 4 4 5 7 6 2 3 2 2 2 2 2 2 3 3 3 3 3 4 5 5 5 5 6 6 7 8 16 16 15 15 15 15 15 16 17 18 19 20 21 22 22 23 24 24 24 24 24 24 25 25 26 27
12 11 12 12 9 9 11 12 11 11 7 8 9 10 9 9 8 7 7 6 6 7 6 6 6 5 5 4 4 4 4 3 4 3 3 4 6 5 5 5 2 4 2 3 3 2 2 3 3 4 4 4 4 5 6 6 6 7 10 15 16 16 16 16 16 16 16 17 19 20 21 22 22 23 24 24 24 24 24 24 25 26 26 27 27
11 11 12 12 11 11 9 10 11 11 10 10 9 9 7 8 8 7 7 7 6 7 7 5 6 6 6 6 6 5 4 3 3 5 3 4 5 4 4 6 5 2 3 4 5 3 3 3 3 4 4 4 4 6 6 6 6 7 11 15 15 15 16 17 17 17 17 18 19 19 20 21 22 23 23 24 24 24 25 25 26 27 27 28 28
9 9 10 10 11 10 8 9 7 6 7 9 9 8 7 6 6 9 9 9 7 7 7 6 6 6 7 7 6 6 5 6 7 6 5 4 4 5 5 4 5 6 1 6 5 3 3 3 3 4 4 4 5 5 6 6 6 9 11 12 12 13 16 17 17 17 17 18 19 19 20 21 22 23 24 24 25 25 25 26 26 26 27 28 28
8 9 10 10 9 8 9 9 8 6 7 7 8 8 7 7 7 8 8 9 7 8 7 7 8 6 8 6 6 6 6 6 5 6 6 5 6 5 4 3 5 5 3 4 3 3 2 3 4 4 4 4 4 4 5 5 4 10 12 11 10 12 15 17 17 17 18 19 19 20 21 22 22 23 23 24 24 24 25 25 26 26 27 28 29
10 9 10 11 9 9 9 9 7 7 7 8 7 7 7 7 8 9 8 9 8 8 7 7 8 7 7 6 5 5 5 4 4 5 4 4 5 5 5 3 4 2 1 2 1 1 1 3 3 3 3 3 3 4 5 5 5 9 13 10 10 11 14 17 19 19 19 19 20 20 21 21 22 23 23 23 23 24 25 25 26 27 27 28 29
11 11 11 10 8 9 9 9 9 8 8 7 8 9 9 9 8 8 8 7 7 8 7 7 7 7 6 6 6 5 4 3 4 4 5 6 6 7 5 3 4 3 1 1 0 1 4 3 2 2 2 3 4 4 6 6 5 10 13 9 7 10 13 16 18 19 19 19 20 20 21 21 22 22 22 23 23 24 25 26 27 27 28 29 29
13 12 12 10 11 9 8 8 8 9 9 8 7 8 9 8 8 8 7 6 7 7 6 8 7 8 7 7 6 5 4 4 4 4 4 5 5 5 5 3 4 5 3 2 1 4 2 1 2 1 2 3 4 5 6 6 6 9 11 6 6 9 11 16 19 19 18 18 19 20 21 21 22 22 22 23 24 25 25 26 27 27 28 29 30
12 10 9 9 11 10 8 8 8 9 9 10 10 9 9 9 8 8 8 5 7 8 7 8 8 9 9 7 6 5 4 4 4 3 4 4 4 4 4 3 2 1 2 2 2 2 2 2 2 2 1 2 4 5 7 7 5 11 9 7 7 8 11 17 19 19 18 18 19 20 21 22 22 23 22 22 23 24 25 25 26 27 28 29 30
9 8 10 11 9 9 8 9 10 11 11 11 10 10 9 7 7 8 7 6 7 8 7 8 8 8 7 7 5 5 5 5 4 4 4 4 3 2 3 3 1 2 1 1 1 1 2 1 2 2 3 5 6 5 5 5 5 8 7 7 7 7 11 18 19 19 18 18 19 20 21 22 22 22 22 22 24 24 25 25 26 27 28 30 30
8 9 9 11 9 10 10 10 10 11 11 11 12 11 10 6 7 6 7 8 8 7 8 8 8 6 6 6 6 5 5 5 4 5 4 4 4 4 3 2 2 2 1 2 3 2 2 1 2 3 4 6 6 6 5 5 5 7 7 7 6 7 13 18 18 17 17 17 18 20 21 22 22 22 22 23 24 25 25 26 27 29 29 30 31
8 9 10 9 10 10 10 11 11 10 9 9 9 8 7 6 7 8 8 9 8 7 6 7 6 6 7 7 6 6 6 6 5 5 3 4 3 3 3 3 2 1 1 1 2 0 1 3 2 1 4 5 5 6 5 5 6 7 7 7 7 9 12 13 14 16 16 17 17 19 20 21 22 23 23 23 24 25 26 26 27 29 29 30 30
10 11 10 11 10 11 10 11 11 10 10 7 7 7 6 6 7 8 8 10 9 8 6 6 6 6 7 7 6 6 6 6 5 5 4 3 3 3 3 3 3 1 1 2 3 4 1 4 4 5 4 4 6 6 6 5 5 6 7 7 7 9 8 8 11 14 16 15 17 19 20 21 22 23 23 23 24 26 26 26 28 29 29 29 28
10 11 11 12 12 12 12 11 11 11 9 8 6 7 7 7 7 8 8 8 7 7 7 6 6 7 7 8 7 6 6 6 6 6 5 5 4 3 3 3 4 3 2 2 3 4 4 2 3 4 4 4 5 4 6 6 7 6 7 7 7 7 7 7 9 13 13 15 16 18 20 21 22 23 23 23 24 26 26 26 26 26 26 27 28
10 12 12 11 11 12 13 13 11 11 11 9 8 8 8 8 7 6 8 10 9 6 7 7 6 6 8 9 7 7 7 7 7 6 6 5 5 5 4 3 3 3 2 2 3 3 5 3 4 4 5 4 6 3 6 8 8 8 8 8 6 7 7 8 9 10 15 15 15 17 20 22 22 22 22 21 23 25 26 26 25 25 25 26 27
10 11 12 11 11 11 12 12 12 11 11 11 10 9 10 10 10 8 8 10 10 9 8 8 8 7 8 8 9 8 7 7 7 6 6 5 4 5 5 3 3 3 3 2 2 3 4 5 4 4 5 5 5 6 7 7 8 8 9 8 7 6 6 8 9 9 14 18 19 18 19 21 23 24 23 21 23 24 24 25 25 26 26 26 27
11 9 10 12 11 12 12 10 11 12 11 12 10 11 13 12 11 10 9 9 9 8 8 9 9 9 9 8 8 9 8 7 6 6 5 5 5 5 5 4 3 3 3 3 4 3 3 4 3 4 5 6 6 6 6 7 8 9 8 8 7 7 8 7 9 10 12 20 22 20 18 18 21 24 23 22 24 26 26 25 24 25 26 27 27
10 10 8 8 12 12 12 13 12 10 11 11 11 10 10 11 11 10 10 10 10 9 10 10 10 10 8 8 8 8 8 7 6 6 6 7 5 5 4 4 3 3 3 3 3 3 3 5 5 3 4 5 6 6 6 7 9 8 8 7 7 8 7 7 7 8 13 17 19 20 19 18 20 24 25 23 24 25 26 25 24 24 24 25 25
9 8 10 9 10 11 11 12 11 10 10 10 11 10 10 10 10 10 10 10 9 10 10 10 9 7 8 7 8 8 8 7 7 6 7 7 6 5 5 4 3 3 3 3 3 3 3 4 4 5 4 5 6 5 5 7 9 9 8 7 8 6 6 7 7 8 10 10 10 10 12 13 15 24 26 24 22 23 23 22 21 23 24 23 24
11 10 8 9 9 11 10 10 10 10 10 10 10 10 11 10 12 11 10 9 10 10 10 8 7 6 6 6 7 7 6 6 7 7 7 7 5 6 5 5 4 3 3 3 2 2 3 3 4 4 4 4 5 6 6 6 7 7 9 11 8 4 5 8 10 9 9 12 15 18 16 16 17 16 22 24 21 22 21 20 23 23 22 22 24
10 11 13 11 9 9 10 10 9 9 10 10 9 11 12 13 11 10 10 11 12 10 7 7 6 6 5 5 6 5 5 5 6 7 7 7 6 6 5 4 4 4 3 2 2 1 2 2 3 3 4 5 4 4 5 6 7 6 6 9 13 13 11 8 8 10 10 10 13 13 13 13 10 12 17 20 19 18 20 20 18 18 19 24 28
9 10 9 11 11 9 9 9 9 9 11 12 11 13 15 11 10 12 12 11 10 9 8 7 6 6 6 5 5 4 4 5 6 5 5 5 6 6 5 5 5 4 3 2 1 1 1 1 3 3 3 4 4 6 7 7 8 9 10 10 11 11 12 12 10 8 8 10 11 14 13 12 12 10 10 11 12 15 15 15 13 14 24 30 31
8 8 9 9 11 14 12 9 10 10 11 11 13 17 15 11 13 11 9 9 9 9 9 9 7 6 6 5 4 7 8 8 8 8 8 6 3 4 5 5 5 4 3 3 1 1 1 1 2 3 3 4 5 6 6 7 8 9 11 11 12 12 12 12 11 6 8 9 13 15 14 12 13 13 12 12 12 12 11 11 11 18 26 31 32
9 9 9 9 10 11 12 13 13 11 11 9 15 15 17 16 10 9 10 9 9 9 9 9 9 8 7 7 7 7 8 8 8 9 9 9 8 8 5 3 2 4 4 4 3 2 2 1 1 2 3 4 5 5 6 7 8 9 10 11 11 11 11 12 14 13 5 10 12 13 14 12 12 14 14 13 12 13 13 12 22 26 28 31 32
7 7 10 11 11 11 10 10 10 10 10 10 16 17 16 16 14 10 8 9 8 8 8 8 8 8 9 8 7 6 6 7 8 8 8 9 9 8 6 5 4 3 3 2 3 2 2 2 2 2 2 4 5 6 6 7 9 10 10 10 11 10 12 12 11 12 12 13 14 13 15 13 12 13 14 12 12 12 14 20 25 26 30 31 31
8 10 10 10 10 9 9 10 9 9 9 12 16 18 16 17 16 12 7 8 9 9 9 8 9 9 9 8 7 5 5 7 7 7 7 7 8 7 5 5 4 4 4 3 1 2 2 2 2 3 2 3 5 5 7 9 9 10 10 9 9 10 10 11 11 13 14 13 12 12 14 13 12 14 14 14 12 13 16 18 23 29 31 30 31
8 8 7 9 7 8 8 8 8 7 7 13 18 18 17 18 15 10 7 8 8 8 8 9 8 9 9 9 8 7 7 7 6 7 7 7 7 6 5 4 4 5 4 4 3 3 3 3 3 3 3 3 5 7 8 8 9 9 9 10 10 11 11 12 14 14 14 11 10 11 14 12 11 14 16 14 14 14 15 20 25 26 29 30 31
8 8 8 7 5 6 7 7 8 8 8 16 19 19 18 19 15 8 8 7 7 7 6 7 8 8 9 7 8 8 9 8 6 8 8 7 6 5 4 4 4 4 3 4 4 4 3 3 3 3 3 4 5 6 7 7 8 9 8 10 11 12 13 14 12 11 9 8 9 8 10 12 11 13 16 15 15 16 15 19 23 25 29 30 30
3 4 4 5 8 8 8 9 11 10 9 19 19 19 20 18 15 6 8 8 7 7 7 7 6 6 7 7 7 8 9 8 10 12 9 7 7 6 5 5 4 3 3 2 2 4 3 2 2 2 3 4 7 7 7 7 7 8 8 8 9 9 10 11 10 7 6 6 7 7 10 12 11 12 16 15 15 16 16 15 20 24 27 30 30
7 7 7 7 7 7 8 8 9 9 10 17 18 19 19 18 13 6 6 6 6 7 7 6 6 6 6 7 7 7 8 8 11 13 12 10 7 7 6 6 4 3 3 4 7 4 3 3 3 4 5 6 6 7 8 8 7 7 6 7 7 7 9 10 10 8 7 7 8 7 8 12 9 10 14 16 16 17 16 15 14 19 25 29 30
6 5 6 6 6 6 7 8 8 8 8 14 18 17 16 18 8 9 8 7 7 6 6 6 5 5 5 6 7 7 8 8 13 14 13 10 7 7 7 7 5 5 4 5 5 4 2 1 1 1 2 3 4 5 5 6 7 6 4 6 7 7 8 8 9 10 11 9 8 6 7 9 10 9 11 13 17 13 13 14 15 15 21 21 28
4 5 5 5 6 5 6 6 7 8 8 12 17 15 15 16 12 6 7 7 8 6 6 6 5 4 6 7 8 7 7 10 15 13 14 11 7 8 7 7 6 7 6 6 6 4 2 0 0 1 1 1 2 3 3 6 6 5 5 6 6 6 7 8 9 10 11 7 5 6 9 11 11 11 9 12 12 16 14 15 17 15 15 16 17
Wind_Direction
187 194 196 207 197 206 210 214 221 224 214 223 233 219 209 209 212 225 250 275 282 276 309 297 291 290 301 302 303 310 308 299 305 303 297 296 298 264 192 250 272 283 290 298 302 305 307 309 310 312 315 317 318 321 325 326 324 326 326 327 328 329 331 320 311 301 294 294 297 294 289 286 289 287 278 269 274 275 276 277 279 280 276 271 270
189 189 193 197 201 206 216 222 227 215 220 226 211 231 214 197 209 223 237 251 265 280 293 291 287 294 295 294 292 299 295 298 305 308 308 299 293 295 196 232 251 279 289 295 300 306 309 312 313 314 316 318 321 324 329 332 334 336 336 332 330 334 338 333 309 302 322 313 305 306 302 302 292 287 281 274 271 273 276 275 278 280 282 279 274
192 184 195 193 198 203 214 220 231 219 217 230 210 231 219 220 204 234 254 277 277 289 281 287 282 280 266 274 282 275 274 281 285 292 292 293 298 302 298 221 247 273 290 299 309 315 318 319 320 320 321 322 325 331 335 338 339 339 337 337 338 339 344 349 352 351 349 350 345 337 338 340 327 313 304 292 284 284 282 283 284 283 285 287 285
207 195 203 200 202 198 213 220 225 219 216 225 219 221 234 227 224 254 273 275 281 274 274 287 291 289 280 262 257 260 268 273 278 278 284 296 299 302 306 314 238 242 278 302 316 321 326 329 330 331 330 331 334 336 339 341 343 346 349 349 348 348 353 355 356 356 355 357 0 358 356 354 352 348 339 321 301 294 293 291 280 274 276 281 279
209 208 206 214 216 216 221 219 224 217 212 213 227 234 228 225 222 219 241 258 270 276 265 274 282 284 273 274 279 276 280 286 283 282 286 293 301 300 304 304 308 285 243 277 310 328 338 336 339 339 337 338 339 340 344 346 348 352 353 353 352 353 356 358 358 357 357 358 0 360 358 352 349 344 342 340 335 329 321 300 296 291 288 273 271
215 207 212 219 222 225 227 223 223 214 217 208 220 224 231 233 239 237 250 265 274 273 275 283 282 285 284 286 287 291 296 290 291 291 291 291 294 296 297 308 316 333 348 318 60 348 354 344 343 349 347 343 345 350 352 353 356 357 357 354 355 355 354 356 356 360 1 360 359 356 352 348 344 341 339 339 337 334 329 324 316 310 304 294 286
214 214 211 222 226 226 224 229 219 210 220 219 231 231 236 242 240 250 275 280 276 269 272 278 282 284 289 290 290 289 287 288 285 278 278 292 289 294 300 312 338 352 353 351 69 92 13 352 350 354 351 351 357 2 1 2 4 2 358 354 354 353 353 355 355 356 358 355 351 350 350 347 343 339 337 336 333 330 328 328 327 326 320 312 304
212 214 217 216 225 224 223 224 207 214 223 216 221 239 238 240 240 259 278 274 271 273 273 276 282 283 286 291 292 288 291 294 295 292 298 299 298 300 315 358 5 13 338 5 6 71 65 356 351 354 356 358 4 8 7 9 7 3 359 355 352 350 351 352 353 353 353 353 352 353 352 347 343 340 339 337 336 334 333 333 334 331 327 324 322
210 208 219 217 220 228 229 218 203 219 220 217 221 232 234 232 254 246 263 278 280 282 280 282 283 286 288 286 290 287 286 293 298 306 299 287 306 324 356 41 35 347 23 15 20 16 107 317 331 336 5 6 8 10 11 11 9 3 2 0 358 356 357 357 357 357 359 358 357 356 352 350 348 347 346 345 343 341 339 337 336 335 332 330 328
207 207 214 218 218 224 230 220 212 214 222 223 229 222 230 241 258 252 243 255 267 269 273 275 286 289 290 291 289 284 287 288 298 302 292 321 340 13 21 39 48 29 32 31 17 28 8 151 215 218 122 24 14 13 13 18 13 12 12 11 9 9 9 7 6 7 6 3 1 358 357 356 353 351 349 347 344 342 340 338 337 336 336 334 331
204 201 211 209 216 222 228 219 211 215 221 221 222 219 221 231 253 263 253 250 268 280 284 289 290 288 286 287 285 281 284 291 305 302 322 357 20 12 46 56 58 50 42 27 33 15 13 4 15 16 72 81 24 20 18 23 16 20 18 15 13 12 12 12 12 10 7 3 360 357 355 353 351 349 347 345 343 341 338 336 335 332 329 327 326
200 201 206 210 214 218 219 215 216 215 208 214 220 227 229 233 235 248 257 247 241 258 259 265 279 282 283 282 273 275 274 294 309 305 290 101 60 51 69 69 66 69 56 31 30 17 13 15 18 17 13 54 81 27 25 27 22 21 21 14 11 12 13 12 10 7 3 360 358 357 356 353 351 349 347 345 343 341 339 338 335 333 331 329 326
201 198 203 207 214 219 221 221 216 217 223 221 223 234 242 239 245 237 246 259 259 244 245 250 275 279 262 282 293 279 277 271 260 191 117 98 90 63 57 70 65 49 32 17 20 18 19 23 16 14 17 16 46 63 47 49 28 19 19 14 8 12 10 8 6 2 2 360 359 357 354 353 351 349 347 345 344 342 340 337 335 333 331 329 326
201 201 204 207 209 212 214 217 210 215 222 233 228 234 218 213 225 249 231 254 261 254 237 229 248 258 296 307 287 255 108 284 200 129 135 117 106 65 59 65 47 30 12 359 14 14 28 19 18 21 24 25 31 31 37 36 29 16 20 13 7 8 5 2 3 3 1 358 356 353 352 351 350 348 347 344 342 340 338 336 334 331 329 327 325
199 198 203 204 212 213 210 212 210 211 212 227 235 232 228 222 223 242 252 235 258 261 233 228 266 1 225 264 235 278 177 170 191 272 103 121 138 86 59 72 63 23 358 3 11 18 25 22 25 30 30 32 34 35 43 41 25 14 21 13 3 4 1 0 1 360 357 356 356 355 353 352 349 347 345 344 342 340 338 335 333 331 328 327 325
198 198 205 210 209 212 214 226 227 216 226 240 234 234 232 233 226 227 251 260 228 236 231 224 232 214 249 213 337 274 282 188 207 243 72 134 116 45 62 38 44 21 350 14 11 17 22 29 33 38 36 39 37 40 43 33 24 20 27 14 2 0 358 357 357 357 357 357 355 353 351 349 348 345 343 342 340 338 335 333 331 329 327 326 325
213 211 204 215 222 218 216 222 227 218 212 236 237 235 234 234 228 224 228 238 248 245 212 213 221 214 243 203 222 247 269 42 289 270 167 195 188 290 12 359 353 349 0 19 11 26 29 34 39 46 46 46 44 42 44 32 19 17 15 12 357 358 358 357 358 357 357 355 353 350 349 347 346 345 343 341 339 337 334 332 331 329 328 328 327
215 216 200 204 217 222 224 223 217 220 224 231 236 235 233 235 234 235 232 230 246 252 245 197 221 222 227 260 328 303 322 127 328 293 276 260 235 208 293 331 313 342 16 12 18 20 34 40 43 55 52 47 46 44 39 36 23 23 16 359 359 1 1 360 356 353 354 352 350 349 346 345 345 343 342 340 338 337 335 335 334 333 332 331 329
215 219 218 203 205 215 220 220 219 215 222 229 233 234 234 233 229 225 226 224 213 225 229 226 178 236 230 245 287 43 128 161 225 279 302 32 187 162 150 141 310 332 51 27 24 16 42 48 52 58 61 54 54 46 34 33 34 37 20 1 2 1 359 359 354 353 352 349 348 347 346 346 345 344 343 342 341 339 338 337 336 335 334 332 330
214 212 214 213 207 201 208 216 212 221 203 195 214 227 226 228 222 215 214 199 196 208 219 193 195 206 185 207 212 195 144 212 227 241 273 300 311 1 121 49 345 120 116 72 40 35 39 57 56 57 70 68 61 45 33 28 28 17 12 0 360 359 358 356 355 353 352 349 348 347 347 347 346 345 344 343 341 339 338 337 336 335 333 331 330
212 211 210 213 205 210 213 211 210 218 214 218 224 222 215 213 202 205 202 200 195 210 211 194 199 194 153 192 187 176 156 171 179 174 178 233 280 309 328 356 21 120 81 79 40 41 48 62 66 67 82 84 63 44 31 26 26 16 4 356 355 357 356 355 354 354 352 350 349 348 347 346 344 342 342 340 338 337 337 337 336 335 333 332 330
208 210 211 208 205 205 211 215 209 212 215 222 219 216 212 212 200 191 193 191 194 197 203 187 193 196 194 185 180 156 148 146 159 168 176 222 272 299 328 327 324 4 17 27 18 31 42 53 66 72 76 74 53 39 27 25 26 15 354 349 351 354 354 352 352 353 351 349 347 346 344 343 341 339 339 338 338 338 338 337 336 335 333 331 330
201 204 206 205 204 200 204 210 216 208 197 204 205 203 197 192 192 189 189 188 186 189 192 194 190 198 199 193 204 191 200 195 175 177 175 183 225 261 275 270 280 300 23 3 0 15 32 55 55 75 80 67 50 34 26 16 33 22 346 347 345 352 352 350 350 348 347 346 345 344 343 341 339 338 338 338 338 338 337 336 334 331 329 328 327
198 200 203 204 201 202 202 206 206 196 198 203 199 193 186 189 183 184 185 190 189 181 179 179 189 194 205 211 224 235 231 220 178 185 208 224 212 226 237 259 270 254 299 337 344 356 23 44 57 75 76 63 47 33 17 7 52 38 351 344 343 350 350 347 347 346 345 344 344 343 341 339 337 335 335 336 335 335 333 332 329 327 326 326 324
198 198 202 201 200 202 198 200 196 197 200 198 189 176 175 173 177 179 178 185 190 188 193 200 202 208 209 206 206 207 208 201 198 208 206 197 207 221 228 225 245 262 277 329 342 330 63 39 34 67 73 58 50 33 14 8 352 24 350 338 348 351 347 345 344 343 342 341 341 339 337 334 332 331 332 333 333 332 331 329 326 325 325 324 322
198 201 203 199 196 201 202 203 199 195 188 182 174 180 179 174 171 174 179 191 196 197 198 182 195 205 188 182 185 185 171 185 195 187 189 193 206 211 210 209 234 265 287 259 282 270 161 121 62 65 52 33 30 21 16 359 347 18 341 315 344 349 346 343 340 338 338 338 337 335 331 329 328 328 330 331 330 329 328 326 325 324 323 321 319
203 205 201 195 198 196 193 191 188 185 178 172 167 169 175 172 176 174 179 182 181 173 163 165 172 173 183 184 165 157 154 153 168 179 192 205 207 202 193 199 198 209 225 214 201 246 281 346 119 127 39 24 18 11 9 350 350 7 326 332 335 340 344 340 333 332 334 333 331 329 326 325 325 327 329 330 328 327 324 322 320 318 318 316 315
205 199 193 190 192 188 178 185 177 177 174 169 165 168 168 169 170 178 180 184 194 187 175 174 176 175 172 172 167 142 138 139 134 134 163 192 200 193 206 234 262 239 187 204 198 212 150 258 156 142 90 28 14 5 350 335 347 352 329 340 339 333 342 333 326 325 328 330 329 327 324 323 324 325 326 324 322 319 318 315 315 315 316 315 314
194 185 187 181 177 175 175 175 173 176 173 169 166 169 169 163 172 177 177 174 189 179 174 174 166 161 159 161 152 141 129 128 126 129 150 185 200 185 203 211 250 257 305 273 225 263 175 167 302 137 47 7 0 351 340 332 356 347 332 330 332 326 331 325 319 318 319 322 324 322 321 320 319 319 318 318 318 316 314 314 314 316 315 315 314
180 179 174 178 175 172 176 175 170 169 169 169 170 169 169 157 161 162 165 163 163 161 164 159 156 155 142 137 147 134 133 135 142 159 173 186 180 182 183 200 226 251 304 291 297 237 265 208 253 279 349 344 345 331 327 317 339 334 327 321 322 323 322 311 305 306 309 311 314 316 316 316 314 314 315 316 315 314 313 312 314 315 315 314 315
174 172 178 176 175 177 175 172 171 169 163 159 155 156 151 152 162 161 160 169 163 157 155 156 152 148 144 137 138 130 131 133 144 163 169 174 164 153 149 160 180 240 225 241 278 104 122 286 289 343 326 324 322 312 309 310 320 320 314 315 309 314 296 290 290 295 299 306 309 312 314 313 312 311 312 314 312 311 310 310 313 314 313 314 315
177 177 177 176 174 173 171 169 168 165 166 159 160 148 149 156 165 165 165 170 162 154 145 150 151 143 136 139 141 142 137 143 158 164 161 146 146 145 144 137 122 106 180 219 246 270 291 295 299 306 317 316 311 301 301 303 303 287 315 304 303 297 290 299 291 290 291 297 307 311 311 311 311 311 311 311 310 307 307 309 312 312 312 314 314
173 178 180 178 175 174 167 167 167 166 166 159 157 151 149 158 167 166 161 163 136 153 144 136 136 145 148 148 143 138 145 153 159 161 158 150 142 137 145 146 140 146 187 203 232 266 278 256 291 301 315 314 304 300 301 308 311 311 307 303 301 297 294 294 294 289 290 295 303 309 311 311 309 307 308 309 307 303 303 306 308 308 310 313 314
180 181 181 179 176 175 171 170 169 168 169 160 157 155 151 156 160 162 166 168 154 149 147 143 143 140 147 150 142 144 159 165 164 159 155 156 159 149 152 154 146 147 155 191 231 254 279 290 292 310 303 313 304 305 313 315 312 312 308 305 300 298 298 299 303 301 299 297 303 310 312 310 305 304 305 305 304 303 305 308 308 308 311 313 311
186 184 180 176 174 173 171 170 169 166 168 166 157 157 158 159 167 168 165 164 157 154 153 149 150 145 148 153 159 163 168 166 163 155 154 155 154 143 138 141 142 144 165 203 217 247 267 286 291 296 309 314 304 309 314 308 305 306 305 305 304 301 293 297 296 297 296 298 300 303 305 306 303 302 304 307 306 305 306 306 306 309 310 308 307
181 186 181 172 169 168 168 156 158 158 167 160 164 170 172 170 169 168 165 157 155 157 159 159 158 164 164 159 169 173 175 168 160 154 156 154 150 142 139 144 151 163 178 186 218 241 263 283 281 299 303 307 304 307 309 307 311 312 306 301 300 302 300 295 294 297 302 301 300 299 299 298 299 301 304 308 308 304 303 302 301 307 312 314 312
179 167 169 173 168 166 165 154 158 164 166 165 163 166 165 170 168 163 164 153 154 160 167 172 173 172 165 170 165 173 178 160 156 155 155 152 147 144 143 149 160 164 183 200 207 228 255 272 290 282 285 283 292 299 310 319 319 313 309 306 311 305 301 300 298 292 292 295 297 301 303 304 305 304 304 304 301 298 298 300 301 308 311 309 307
162 168 167 169 171 166 164 168 165 161 162 165 165 164 161 158 156 153 130 130 155 164 174 179 176 167 167 165 165 175 176 165 156 149 148 147 143 144 148 153 158 177 190 195 207 223 249 269 279 296 288 301 307 307 324 328 320 319 316 316 314 308 313 314 312 312 311 306 304 299 299 301 303 299 296 295 295 293 293 297 300 304 306 309 313
162 161 170 167 168 159 159 159 163 159 163 166 166 162 159 159 150 151 154 154 161 170 180 168 162 151 154 159 168 179 175 162 150 152 149 148 146 147 152 153 165 183 190 188 201 227 252 274 278 280 298 298 302 311 331 323 312 312 323 327 322 317 315 321 318 317 311 305 301 299 299 299 298 291 292 295 295 294 297 301 305 306 311 311 313
169 169 166 168 163 153 155 164 163 162 162 164 165 161 131 136 155 161 159 163 170 172 155 147 140 147 155 158 166 172 162 152 150 148 151 149 146 147 152 159 169 181 183 181 195 227 258 274 287 301 309 308 312 322 323 330 328 326 346 336 324 325 326 324 315 314 311 307 309 312 309 310 311 295 291 295 296 298 300 302 301 301 307 315 315
170 170 165 157 153 150 156 162 162 167 170 163 154 155 146 159 159 164 168 168 159 147 143 136 137 148 152 145 150 153 122 108 107 121 131 137 150 151 156 166 175 173 165 172 178 230 262 279 290 304 309 317 329 337 341 346 346 333 329 330 314 315 319 318 320 315 311 312 312 311 312 317 314 309 304 301 303 305 303 305 304 309 318 319 320
163 161 158 165 160 156 159 167 167 165 161 160 168 164 164 160 166 169 162 153 150 145 140 137 142 147 141 129 115 113 124 125 122 126 130 128 109 131 152 167 175 162 152 154 184 205 248 270 301 320 317 324 335 341 336 332 330 327 326 328 321 321 322 316 307 313 319 320 324 318 314 320 317 314 313 310 307 311 312 314 316 319 320 321 322
163 163 159 162 167 162 158 149 154 165 155 165 165 166 167 166 163 155 153 149 147 142 142 148 152 148 140 133 133 136 132 131 135 137 134 129 119 110 113 137 154 159 156 162 179 189 210 266 292 308 311 313 325 337 328 330 331 330 323 320 316 319 324 328 321 318 324 338 323 316 309 317 320 315 314 310 312 314 313 313 319 319 321 322 322
162 163 168 169 162 127 126 157 169 159 133 162 167 169 172 173 174 161 151 145 146 145 147 150 148 145 145 144 149 153 159 156 150 144 139 132 127 128 140 148 136 133 159 169 171 188 206 232 269 295 308 312 325 326 327 331 327 321 316 313 310 313 314 312 307 306 312 330 324 317 307 315 320 311 309 309 312 313 312 313 318 319 321 322 322
149 165 166 152 141 117 153 162 167 168 167 169 170 173 176 174 171 164 143 144 144 149 154 152 150 150 149 149 151 158 151 150 155 150 146 140 131 137 148 146 145 153 171 177 230 220 207 216 237 272 288 322 314 315 325 320 318 308 309 306 305 306 302 297 297 306 308 321 316 312 308 311 319 316 310 308 314 315 312 313 319 320 320 321 321
156 155 145 153 147 154 161 161 159 165 166 177 176 175 176 172 167 157 141 142 141 146 152 153 152 153 154 153 155 160 163 168 161 154 155 149 148 160 177 178 168 172 181 194 217 239 235 225 234 251 293 310 299 306 312 314 308 304 304 299 304 301 298 291 296 295 295 303 308 312 302 308 325 316 308 308 315 313 309 309 316 319 318 319 319
157 161 158 159 161 160 167 170 167 172 185 176 180 178 173 174 161 135 134 124 132 141 145 150 151 149 153 155 160 160 163 168 166 164 160 160 156 165 171 183 183 179 191 197 197 190 182 214 236 265 289 303 301 304 306 306 301 297 298 297 299 297 294 293 287 276 282 293 302 312 295 306 319 311 303 309 315 311 309 311 313 318 317 317 320
155 150 155 164 167 175 179 179 183 185 179 177 177 174 171 166 151 134 138 140 139 145 150 153 149 146 151 155 156 161 163 164 169 172 168 156 158 167 174 188 186 192 209 202 203 214 206 228 253 306 307 302 300 295 298 302 302 300 298 297 294 294 300 302 296 301 291 300 307 299 294 300 311 307 304 308 310 307 308 307 313 319 317 316 319
167 173 174 178 179 178 177 178 178 176 171 174 172 168 166 157 149 139 132 133 138 143 149 144 143 146 158 164 165 159 160 165 171 173 168 159 159 175 181 189 188 202 216 187 192 165 75 32 354 327 306 298 298 302 307 307 300 305 303 298 296 312 308 307 305 313 306 317 304 295 296 298 307 312 308 307 310 305 304 305 310 315 318 315 318
174 176 170 176 180 180 177 180 181 169 165 172 170 164 158 163 148 136 146 141 138 140 133 136 141 152 160 162 163 163 164 166 172 174 172 169 169 180 185 186 188 206 211 189 186 189 121 69 293 318 323 315 322 319 317 320 314 312 294 288 302 311 300 301 301 309 308 304 292 316 310 296 315 314 309 308 307 298 300 304 309 318 320 320 319
165 166 172 168 174 173 177 177 167 167 164 169 172 164 160 160 154 142 141 141 141 147 144 146 148 145 160 176 179 176 171 167 173 176 179 179 180 188 187 182 196 204 204 182 193 210 228 307 205 64 321 323 332 326 322 318 314 299 283 284 298 301 296 296 297 307 310 303 307 350 320 313 320 312 325 322 311 304 307 314 316 320 323 322 322